Zurück zum Katalog

FENGYUN 1C DEB

AktivSSO
NORAD 36699·DEBRIS·🇨🇳 China

Gestartet May 10, 1999 von Taiyuan Satellite Launch Center

Loading…

Nächste Überflüge (nächste 24 Stunden)

TLE

AktuellSource: Space-Track

Epoche: Sep 14, 2026, 05:59 UTC

1 36699U 99025DZV 26257.24945105  .00000361  00000-0  16582-3 0  9995
2 36699  98.5760 250.0312 0094548  48.0356 312.8831 14.24605320772491

Verfolge FENGYUN 1C DEB in Echtzeit mit AllMySat

Download on the App Store